Location: Ash Swamp
(41.5170°N, 74.6157°W)
Time: 02:22:02
(UTC+00:00)

Cosmos 2237 Rocket - Pass Details

Date: 14 July 2020
Orbit: 835 x 850 km, 71.0° (Epoch: 14 August)

Event Time Altitude Azimuth Distance (km) Brightness Sun altitude
Rises 01:15:09 0° 184° (S) 3,394 5.0 -7.6°
Reaches altitude 10° 01:17:40 10° 178° (S) 2,465 4.3 -7.9°
Maximum altitude 01:23:02 46° 107° (ESE) 1,129 2.5 -8.7°
Drops below altitude 10° 01:28:27 10° 36° (NE) 2,483 4.7 -9.5°
Sets 01:30:59 0° 30° (NNE) 3,422 5.5 -9.9°
